South Hill, VA

8:06 AM EST on December 13, 2019 (GMT -0500)
Mecklenburg-Brunswick Regional

Weather History for KAVC - November, 2019

Change the Weather History Date:

Tuesday, November 12, 2019

  Actual Average (KEMV) Record (KEMV)
Temperature  
Mean Temperature 42 °F -  
Max Temperature 56 °F 62 °F 82 °F (2003)
Min Temperature 27 °F 36 °F 21 °F (2016)
Degree Days  
Heating Degree Days 24    
Moisture  
Dew Point 35 °F    
Average Humidity 78    
Maximum Humidity 96    
Minimum Humidity 48    
Precipitation  
Precipitation 0.61 in - - ()
Sea Level Pressure  
Sea Level Pressure 30.06 in    
Wind  
Wind Speed 7 mph (WNW)    
Max Wind Speed 15 mph    
Max Gust Speed 22 mph    
Visibility 10 miles    
Events      
Averages and records for this station are not official NWS values.
T = Trace of Precipitation, MM = Missing Value Source: NWS Daily Summary

Daily Weather History Graph

Daily Weather History Graph

Search for Another Location

Airport or City:

Astronomy

Nov. 12, 2019 Rise Set
Actual Time 6:46 AM EST 5:05 PM EST
Civil Twilight 6:19 AM EST 5:32 PM EST
Nautical Twilight 5:48 AM EST 6:03 PM EST
Astronomical Twilight 5:17 AM EST 6:34 PM EST
Moon 5:30 PM EST (11/12) 6:37 AM EST (11/12)
Length of Visible Light 11h 13m
Length of Day
10h 18m
Full, 100% of the Moon is Illuminated
Nov 12
Full
Nov 19
Last Quarter
Nov 26
New
Dec 4
First Quarter
Dec 12
Full

Hourly Weather History & Observations

Time (EST) Temp. Windchill Dew Point Humidity Pressure Visibility Wind Dir Wind Speed Gust Speed Precip Events Conditions
12:15 AM 50.2 °F - 36.0 °F 58% 29.99 in 10.0 mi South 5.8 mph - N/A   Clear
12:35 AM 50.4 °F - 36.3 °F 59% 29.98 in 10.0 mi South 6.9 mph - N/A   Clear
12:55 AM 50.4 °F - 36.5 °F 59% 29.98 in 10.0 mi South 5.8 mph - N/A   Clear
1:15 AM 50.9 °F - 37.0 °F 59% 29.97 in 10.0 mi South 6.9 mph - N/A   Clear
1:35 AM 51.6 °F - 37.4 °F 58% 29.97 in 10.0 mi South 8.1 mph - N/A   Clear
1:55 AM 53.4 °F - 37.6 °F 55% 29.96 in 10.0 mi SSW 8.1 mph - N/A   Clear
2:15 AM 55.0 °F - 37.0 °F 51% 29.96 in 10.0 mi SSW 8.1 mph - N/A   Clear
2:35 AM 55.6 °F - 37.0 °F 50% 29.95 in 10.0 mi SSW 9.2 mph - N/A   Clear
2:55 AM 56.3 °F - 37.0 °F 48% 29.94 in 10.0 mi SSW 10.4 mph - N/A   Clear
3:15 AM 56.3 °F - 37.0 °F 48% 29.93 in 10.0 mi SW 9.2 mph - N/A   Clear
3:35 AM 56.3 °F - 37.2 °F 49% 29.94 in 10.0 mi SW 10.4 mph 16.1 mph N/A   Mostly Cloudy
3:55 AM 55.8 °F - 37.4 °F 50% 29.93 in 10.0 mi SW 9.2 mph - N/A   Mostly Cloudy
4:15 AM 55.6 °F - 38.1 °F 52% 29.93 in 10.0 mi SW 6.9 mph - N/A   Overcast
4:35 AM 53.8 °F - 41.5 °F 63% 29.92 in 10.0 mi SSW 10.4 mph - N/A   Overcast
4:55 AM 53.4 °F - 41.9 °F 65% 29.92 in 10.0 mi SSW 6.9 mph - N/A   Overcast
5:35 AM 52.7 °F - 42.8 °F 69% 29.91 in 10.0 mi SSW 5.8 mph - N/A   Overcast
5:55 AM 51.8 °F - 43.9 °F 74% 29.92 in 10.0 mi SSW 4.6 mph - N/A   Mostly Cloudy
6:15 AM 52.0 °F - 43.5 °F 73% 29.92 in 10.0 mi SW 6.9 mph - N/A   Overcast
6:35 AM 51.8 °F - 43.7 °F 74% 29.91 in 10.0 mi SSW 4.6 mph - N/A   Overcast
6:55 AM 51.1 °F - 43.7 °F 76% 29.91 in 10.0 mi SSW 4.6 mph - N/A   Mostly Cloudy
7:15 AM 50.7 °F - 44.8 °F 80% 29.92 in 10.0 mi South 4.6 mph - N/A   Mostly Cloudy
7:35 AM 50.4 °F - 45.7 °F 84% 29.92 in 10.0 mi Calm Calm - N/A   Overcast
7:55 AM 50.0 °F - 47.5 °F 91% 29.93 in 10.0 mi SW 3.5 mph - N/A   Overcast
8:15 AM 50.5 °F - 47.3 °F 89% 29.94 in 10.0 mi WSW 3.5 mph - N/A   Overcast
8:55 AM 50.5 °F - 47.3 °F 89% 29.97 in 10.0 mi WNW 6.9 mph - 0.03 in   Overcast
9:15 AM 49.3 °F - 47.1 °F 92% 29.98 in 10.0 mi WNW 6.9 mph - 0.03 in   Overcast
9:55 AM 47.3 °F - 45.5 °F 93% 29.99 in 10.0 mi NNW 6.9 mph - 0.15 in   Overcast
10:15 AM 46.9 °F - 45.1 °F 93% 30.00 in 10.0 mi NW 6.9 mph - 0.04 in   Overcast
10:35 AM 45.7 °F 42.0 °F 43.7 °F 93% 30.02 in 10.0 mi NW 6.9 mph - 0.09 in   Overcast
11:15 AM 44.2 °F 41.0 °F 42.4 °F 93% 30.02 in 10.0 mi NW 5.8 mph - 0.05 in   Overcast
11:35 AM 43.7 °F 40.3 °F 41.9 °F 93% 30.02 in 10.0 mi NW 5.8 mph - 0.09 in   Overcast
11:55 AM 43.0 °F 40.3 °F 41.2 °F 93% 30.03 in 10.0 mi NW 4.6 mph - 0.13 in   Overcast
12:35 PM 41.7 °F 34.1 °F 39.9 °F 93% 30.02 in 10.0 mi North 15.0 mph - 0.10 in   Overcast
1:15 PM 37.4 °F 28.5 °F 35.6 °F 93% 30.05 in 10.0 mi North 15.0 mph 21.9 mph 0.04 in   Overcast
1:35 PM 36.7 °F 28.9 °F 34.9 °F 93% 30.06 in 10.0 mi NNW 11.5 mph 17.3 mph 0.06 in   Overcast
2:15 PM 33.8 °F 27.0 °F 32.0 °F 93% 30.07 in 10.0 mi North 8.1 mph - 0.02 in   Overcast
2:35 PM 32.7 °F 29.6 °F 31.3 °F 94% 30.08 in 10.0 mi NNW 3.5 mph - 0.03 in   Overcast
2:55 PM 33.3 °F - 32.0 °F 95% 30.08 in 10.0 mi Calm Calm - 0.05 in   Overcast
3:15 PM 34.0 °F - 32.2 °F 93% 30.09 in 10.0 mi Calm Calm - N/A   Overcast
3:35 PM 34.7 °F 30.6 °F 32.9 °F 93% 30.10 in 10.0 mi NNW 4.6 mph - N/A   Overcast
3:55 PM 34.7 °F 28.8 °F 32.9 °F 93% 30.10 in 10.0 mi NNE 6.9 mph - N/A   Overcast
4:15 PM 34.7 °F 30.6 °F 32.9 °F 93% 30.10 in 10.0 mi North 4.6 mph - N/A   Overcast
4:35 PM 34.7 °F 29.6 °F 32.9 °F 93% 30.12 in 10.0 mi North 5.8 mph - N/A   Overcast
4:55 PM 34.7 °F 28.8 °F 32.9 °F 93% 30.12 in 10.0 mi North 6.9 mph - N/A   Overcast
5:15 PM 34.2 °F 28.2 °F 32.4 °F 93% 30.13 in 10.0 mi North 6.9 mph - N/A   Overcast
5:35 PM 34.0 °F 31.0 °F 32.2 °F 93% 30.13 in 10.0 mi NNE 3.5 mph - N/A   Overcast
5:55 PM 33.8 °F 30.8 °F 32.0 °F 93% 30.14 in 10.0 mi North 3.5 mph - N/A   Overcast
6:15 PM 32.9 °F - 31.6 °F 95% 30.16 in 10.0 mi Calm Calm - N/A   Scattered Clouds
6:35 PM 32.2 °F - 31.1 °F 96% 30.17 in 10.0 mi Calm Calm - N/A   Scattered Clouds
6:55 PM 32.0 °F - 30.7 °F 95% 30.18 in 10.0 mi Calm Calm - N/A   Scattered Clouds
7:15 PM 32.0 °F - 30.6 °F 94% 30.19 in 10.0 mi Calm Calm - N/A   Scattered Clouds
7:35 PM 32.2 °F - 30.9 °F 95% 30.20 in 10.0 mi Calm Calm - N/A   Mostly Cloudy
7:55 PM 32.9 °F 22.8 °F 31.5 °F 94% 30.21 in 10.0 mi North 15.0 mph 20.7 mph N/A   Overcast
8:15 PM 32.0 °F 22.1 °F 26.8 °F 81% 30.23 in 10.0 mi North 13.8 mph 19.6 mph N/A   Mostly Cloudy
8:35 PM 31.1 °F 23.7 °F 24.3 °F 76% 30.25 in 10.0 mi NNW 8.1 mph - N/A   Scattered Clouds
8:55 PM 30.6 °F 20.2 °F 21.4 °F 69% 30.26 in 10.0 mi NNW 13.8 mph 19.6 mph N/A   Clear
9:15 PM 30.2 °F 21.3 °F 19.6 °F 65% 30.27 in 10.0 mi NNW 10.4 mph 17.3 mph N/A   Clear
10:15 PM 28.8 °F 19.0 °F 16.5 °F 60% 30.30 in 10.0 mi NNW 11.5 mph 17.3 mph N/A   Clear
10:35 PM 28.2 °F 18.9 °F 16.3 °F 61% 30.31 in 10.0 mi NNW 10.4 mph - N/A   Clear
10:55 PM 27.9 °F 17.8 °F 15.6 °F 60% 30.31 in 10.0 mi NNW 11.5 mph 17.3 mph N/A   Clear
11:15 PM 27.5 °F 18.6 °F 14.9 °F 59% 30.32 in 10.0 mi NNW 9.2 mph - N/A   Clear
11:35 PM 27.3 °F 19.1 °F 14.7 °F 59% 30.32 in 10.0 mi NNW 8.1 mph - N/A   Clear
11:55 PM 27.1 °F 17.5 °F 14.2 °F 58% 30.33 in 10.0 mi NNW 10.4 mph - N/A   Clear